This is the latest recevied weather packets stored in our database for station/object TA3MHA. If no packets are shown the sender has not sent any weather packets the latest 10 day(s).
| Time | Temp. | Humidity | Pressure | Rain* | Wind** | Luminosity | Snow |
|---|---|---|---|---|---|---|---|
| 1777047301 | 16.67° C | 41% | - | 0 mm | - | 42 W/m² | - |
| 1777047000 | 17.22° C | 40% | - | 0 mm | - | 53 W/m² | - |
| 1777046701 | 17.22° C | 39% | - | 0 mm | - | 63 W/m² | - |
| 1777046400 | 17.22° C | 39% | - | 0 mm | - | 74 W/m² | - |
| 1777046101 | 17.22° C | 39% | - | 0 mm | - | 83 W/m² | - |
| 1777045800 | 17.78° C | 39% | - | 0 mm | - | 90 W/m² | - |
| 1777045501 | 17.78° C | 37% | - | 0 mm | - | 103 W/m² | - |
| 1777045201 | 17.78° C | 37% | - | 0 mm | - | 115 W/m² | - |
| 1777044901 | 17.78° C | 36% | - | 0 mm | - | 134 W/m² | - |
| 1777044601 | 17.78° C | 40% | - | 0 mm | - | 155 W/m² | - |
| 1777044300 | 17.78° C | 40% | - | 0 mm | - | 169 W/m² | - |
| 1777044001 | 17.78° C | 38% | - | 0 mm | - | 182 W/m² | - |
| 1777043701 | 17.78° C | 40% | - | 0 mm | - | 186 W/m² | - |
| 1777043401 | 17.78° C | 41% | - | 0 mm | - | 189 W/m² | - |
| 1777043101 | 17.22° C | 41% | - | 0 mm | - | 200 W/m² | - |
| 1777042801 | 17.22° C | 42% | - | 0 mm | - | 214 W/m² | - |
| 1777042501 | 17.22° C | 42% | - | 0 mm | - | 181 W/m² | - |
| 1777042201 | 17.78° C | 40% | - | 0 mm | - | 123 W/m² | - |
| 1777041900 | 17.78° C | 42% | - | 0 mm | - | 275 W/m² | - |
| 1777041601 | 17.78° C | 43% | - | 0 mm | - | 346 W/m² | - |
| 1777041301 | 18.33° C | 41% | - | 0 mm | - | 372 W/m² | - |
| 1777041001 | 18.33° C | 41% | - | 0 mm | - | 363 W/m² | - |
| 1777040701 | 17.78° C | 40% | - | 0 mm | - | 386 W/m² | - |
| 1777040401 | 17.78° C | 39% | - | 0 mm | - | 376 W/m² | - |
| 1777040100 | 17.78° C | 40% | - | 0 mm | - | 379 W/m² | - |
* Rain latest hour (hover to see other rain measurements)
** Current wind speed in m/s (hover to see current wind gust speed)